Location: Caltech
(34.1382°N, 118.1253°W)
Time: 16:12:24
(UTC-08:00)

HO-68 - Visible Passes

Search period start: 18 January 2017 00:00
Search period end: 28 January 2017 00:00
Orbit: 1193 x 1204 km, 100.1° (Epoch: 18 January)

Date Brightness Start Highest point End Pass type
(mag) Time Alt. Az. Time Alt. Az. Time Alt. Az.
18 Jan ? 17:40:53 10° ESE 17:46:45 28° ENE 17:52:37 10° N visible
18 Jan ? 19:27:09 10° S 19:34:03 50° W 19:41:01 10° NNW visible
19 Jan ? 19:09:58 10° S 19:17:06 66° WSW 19:24:17 10° NNW visible
20 Jan ? 18:52:59 10° SSE 19:00:11 87° WSW 19:07:26 10° NNW visible
20 Jan ? 20:46:18 10° WSW 20:48:40 12° W 20:51:03 10° WNW visible
21 Jan ? 06:26:10 10° NE 06:31:28 22° E 06:36:43 10° SE visible
21 Jan ? 18:36:09 10° SSE 18:43:18 72° ENE 18:50:29 10° N visible
21 Jan ? 20:27:05 10° SW 20:31:31 17° W 20:35:59 10° NW visible
22 Jan ? 06:10:22 10° ENE 06:14:22 16° E 06:18:19 10° SE visible
22 Jan ? 18:19:31 10° SE 18:26:28 55° ENE 18:33:27 10° N visible
22 Jan ? 20:08:52 10° SSW 20:14:25 24° W 20:20:02 10° NW visible
23 Jan ? 05:56:16 10° E 05:57:12 10° E 05:58:08 10° E visible
23 Jan ? 18:03:03 10° SE 18:09:40 41° ENE 18:16:18 10° N visible
23 Jan ? 19:51:05 10° SSW 19:57:22 33° W 20:03:42 10° NW visible
24 Jan ? 17:46:48 10° ESE 17:52:56 31° ENE 17:59:03 10° N visible
24 Jan ? 19:33:35 10° S 19:40:21 44° W 19:47:10 10° NNW visible
25 Jan ? 19:16:19 10° S 19:23:22 59° WSW 19:30:29 10° NNW visible
26 Jan ? 18:59:15 10° S 19:06:27 78° WSW 19:13:41 10° NNW visible
27 Jan ? 18:42:22 10° SSE 18:49:33 81° ENE 18:56:46 10° NNW visible
27 Jan ? 20:34:06 10° SW 20:37:53 15° W 20:41:40 10° WNW visible
